When you browse on this site, cookies collect data to enhance your experience and personalize the content and advertising you see.
Visit our Privacy Policy to learn more. By continuing to use the site, you agree to this use of cookies and data.
  • In Austria
  • List of Countries
  • For 7 days
  • Water Temperature
  • Weather Map
  • News
  • Weather Widgets
  • user-avatar
    Login

    Hourly Weather Bijsk

    Today, 5 April, Sunday

    Time Temperature Precipitation Wind Pressure Humidity
    00:00 +2°C° 0 mm 1 mps 755 mmHg 94%
    01:00 -1°C° 0 mm 2 mps 755 mmHg 94%
    02:00 -1°C° 0 mm 2 mps 754 mmHg 94%
    03:00 -1°C° 0 mm 2 mps 754 mmHg 94%
    04:00 -1°C° 0 mm 2 mps 754 mmHg 95%
    05:00 -1°C° 0 mm 2 mps 754 mmHg 95%
    06:00 -1°C° 0 mm 3 mps 754 mmHg 96%
    07:00 -1°C° 0 mm 3 mps 754 mmHg 96%
    08:00 0°C° 0 mm 3 mps 754 mmHg 97%
    09:00 +1°C° 0 mm 3 mps 754 mmHg 98%
    10:00 +1°C° 0 mm 4 mps 753 mmHg 97%
    11:00 +1°C° 0 mm 4 mps 752 mmHg 96%
    12:00 +3°C° 0 mm 4 mps 751 mmHg 96%
    13:00 +3°C° 0 mm 4 mps 751 mmHg 96%
    14:00 +4°C° 0 mm 4 mps 750 mmHg 96%
    15:00 +4°C° 0 mm 4 mps 749 mmHg 96%
    16:00 +4°C° 0 mm 4 mps 749 mmHg 96%
    17:00 +4°C° 0 mm 4 mps 749 mmHg 96%
    18:00 +3°C° 0 mm 4 mps 749 mmHg 96%
    19:00 +3°C° 0 mm 4 mps 749 mmHg 95%
    20:00 +2°C° 0 mm 3 mps 748 mmHg 95%
    21:00 +2°C° 0 mm 3 mps 748 mmHg 94%
    22:00 +1°C° 0 mm 3 mps 748 mmHg 94%
    23:00 +1°C° 0 mm 3 mps 747 mmHg 95%

    Tomorrow, 6 April, Monday

    Time Temperature Precipitation Wind Pressure Humidity
    00:00 +2°C° 0 mm 2 mps 747 mmHg 95%
    01:00 +2°C° 0 mm 2 mps 747 mmHg 94%
    02:00 +2°C° 0 mm 2 mps 746 mmHg 93%
    03:00 +2°C° 0 mm 2 mps 746 mmHg 92%
    04:00 +3°C° 0 mm 1 mps 746 mmHg 88%
    05:00 +3°C° 0 mm 1 mps 746 mmHg 85%
    06:00 +3°C° 0 mm 1 mps 746 mmHg 81%
    07:00 +5°C° 0 mm 1 mps 746 mmHg 78%
    08:00 +6°C° 0 mm 1 mps 746 mmHg 76%
    09:00 +8°C° 0 mm 1 mps 745 mmHg 73%
    10:00 +9°C° 0 mm 1 mps 745 mmHg 72%
    11:00 +9°C° 0 mm 2 mps 746 mmHg 71%
    12:00 +10°C° 0 mm 2 mps 746 mmHg 70%
    13:00 +11°C° 0 mm 3 mps 746 mmHg 70%
    14:00 +12°C° 0 mm 3 mps 746 mmHg 71%
    15:00 +13°C° 0 mm 3 mps 746 mmHg 72%
    16:00 +12°C° 0 mm 3 mps 747 mmHg 74%
    17:00 +12°C° 0 mm 2 mps 747 mmHg 76%
    18:00 +9°C° 0 mm 2 mps 747 mmHg 79%
    19:00 +9°C° 0 mm 1 mps 748 mmHg 80%
    20:00 +8°C° 0 mm 1 mps 748 mmHg 81%
    21:00 +6°C° 0 mm 0 mps 749 mmHg 82%
    22:00 +7°C° 0 mm 1 mps 749 mmHg 83%
    23:00 +7°C° 0 mm 1 mps 749 mmHg 84%

    Day after tomorrow, 7 April, Tuesday

    Time Temperature Precipitation Wind Pressure Humidity
    00:00 +6°C° 0 mm 2 mps 749 mmHg 85%
    01:00 +5°C° 0 mm 2 mps 749 mmHg 86%
    02:00 +5°C° 0 mm 2 mps 748 mmHg 87%
    03:00 +5°C° 0 mm 2 mps 748 mmHg 88%
    04:00 +5°C° 0 mm 2 mps 748 mmHg 89%
    05:00 +5°C° 0 mm 2 mps 748 mmHg 89%
    06:00 +5°C° 0 mm 2 mps 749 mmHg 89%
    07:00 +7°C° 0 mm 2 mps 748 mmHg 86%
    08:00 +8°C° 0 mm 2 mps 748 mmHg 84%
    09:00 +10°C° 0 mm 2 mps 747 mmHg 81%
    10:00 +11°C° 0 mm 3 mps 747 mmHg 77%
    11:00 +12°C° 0 mm 3 mps 746 mmHg 73%
    12:00 +14°C° 0 mm 4 mps 746 mmHg 69%
    13:00 +14°C° 0 mm 4 mps 745 mmHg 67%
    14:00 +16°C° 0 mm 3 mps 744 mmHg 66%
    15:00 +16°C° 0 mm 3 mps 743 mmHg 64%
    16:00 +16°C° 0 mm 3 mps 743 mmHg 68%
    17:00 +14°C° 0 mm 3 mps 743 mmHg 71%
    18:00 +14°C° 0 mm 3 mps 743 mmHg 74%
    19:00 +13°C° 0 mm 3 mps 743 mmHg 76%
    20:00 +11°C° 0 mm 3 mps 743 mmHg 77%
    21:00 +10°C° 0 mm 2 mps 743 mmHg 79%
    22:00 +10°C° 0 mm 2 mps 742 mmHg 78%
    23:00 +10°C° 0 mm 2 mps 742 mmHg 76%

    8 April, Wednesday

    Time Temperature Precipitation Wind Pressure Humidity
    00:00 +10°C° 0 mm 2 mps 742 mmHg 75%
    01:00 +10°C° 0 mm 2 mps 742 mmHg 72%
    02:00 +9°C° 0 mm 3 mps 742 mmHg 69%
    03:00 +9°C° 0 mm 3 mps 742 mmHg 66%
    04:00 +9°C° 0 mm 3 mps 742 mmHg 69%
    05:00 +8°C° 0 mm 4 mps 743 mmHg 73%
    06:00 +10°C° 0 mm 4 mps 744 mmHg 76%
    07:00 +8°C° 0.2 mm 5 mps 745 mmHg 76%
    08:00 +7°C° 0.2 mm 5 mps 745 mmHg 75%
    09:00 +5°C° 0.2 mm 6 mps 746 mmHg 75%
    10:00 +6°C° 0.1 mm 5 mps 747 mmHg 75%
    11:00 +6°C° 0.1 mm 4 mps 747 mmHg 76%
    12:00 +5°C° 0.1 mm 3 mps 748 mmHg 77%
    13:00 +5°C° 0.6 mm 3 mps 748 mmHg 81%
    14:00 +5°C° 0.6 mm 3 mps 749 mmHg 86%
    15:00 +4°C° 0.6 mm 3 mps 749 mmHg 90%
    16:00 +5°C° 0.5 mm 2 mps 750 mmHg 91%
    17:00 +5°C° 0.5 mm 2 mps 750 mmHg 92%
    18:00 +5°C° 0.5 mm 1 mps 750 mmHg 93%
    19:00 +5°C° 0.6 mm 1 mps 751 mmHg 94%
    20:00 +5°C° 0.6 mm 1 mps 751 mmHg 95%
    21:00 +4°C° 0.6 mm 1 mps 751 mmHg 96%
    22:00 +4°C° 0.8 mm 1 mps 751 mmHg 96%
    23:00 +4°C° 0.8 mm 1 mps 751 mmHg 97%

    9 April, Thursday

    Time Temperature Precipitation Wind Pressure Humidity
    00:00 +3°C° 0.8 mm 1 mps 751 mmHg 97%
    01:00 +3°C° 0.8 mm 1 mps 751 mmHg 97%
    02:00 +3°C° 0.8 mm 1 mps 751 mmHg 97%
    03:00 +2°C° 0.8 mm 2 mps 752 mmHg 97%
    04:00 +2°C° 0.6 mm 2 mps 752 mmHg 97%
    05:00 +1°C° 0.6 mm 2 mps 752 mmHg 97%
    06:00 +1°C° 0.6 mm 2 mps 752 mmHg 97%
    07:00 +1°C° 0.1 mm 2 mps 752 mmHg 96%
    08:00 +2°C° 0.1 mm 2 mps 752 mmHg 95%
    09:00 +3°C° 0.1 mm 1 mps 752 mmHg 94%
    10:00 +3°C° 0.3 mm 1 mps 753 mmHg 94%
    11:00 +3°C° 0.3 mm 1 mps 753 mmHg 94%
    12:00 +3°C° 0.3 mm 1 mps 753 mmHg 94%
    13:00 +3°C° 0.4 mm 1 mps 753 mmHg 95%
    14:00 +3°C° 0.4 mm 1 mps 753 mmHg 95%
    15:00 +3°C° 0.4 mm 1 mps 754 mmHg 96%
    16:00 +3°C° 0.1 mm 1 mps 754 mmHg 96%
    17:00 +3°C° 0.1 mm 1 mps 754 mmHg 96%
    18:00 +3°C° 0.1 mm 1 mps 754 mmHg 96%
    19:00 +3°C° 0 mm 1 mps 754 mmHg 96%
    20:00 +3°C° 0 mm 1 mps 755 mmHg 96%
    21:00 +2°C° 0 mm 2 mps 755 mmHg 96%
    22:00 +2°C° 0 mm 2 mps 755 mmHg 96%
    23:00 +1°C° 0 mm 2 mps 755 mmHg 95%

    10 April, Friday

    Time Temperature Precipitation Wind Pressure Humidity
    00:00 +1°C° 0 mm 2 mps 755 mmHg 95%
    01:00 +1°C° 0 mm 2 mps 755 mmHg 94%
    02:00 +1°C° 0 mm 2 mps 755 mmHg 93%
    03:00 +1°C° 0 mm 2 mps 755 mmHg 92%
    04:00 +2°C° 0 mm 1 mps 755 mmHg 92%
    05:00 +2°C° 0 mm 1 mps 755 mmHg 92%
    06:00 +2°C° 0 mm 1 mps 755 mmHg 92%
    07:00 +2°C° 0.1 mm 1 mps 756 mmHg 91%
    08:00 +3°C° 0.1 mm 1 mps 756 mmHg 90%
    09:00 +4°C° 0.1 mm 1 mps 756 mmHg 89%
    10:00 +4°C° 0.1 mm 2 mps 756 mmHg 84%
    11:00 +5°C° 0.1 mm 2 mps 757 mmHg 79%
    12:00 +5°C° 0.1 mm 3 mps 757 mmHg 74%
    13:00 +5°C° 0.2 mm 5 mps 757 mmHg 73%
    14:00 +4°C° 0.2 mm 6 mps 758 mmHg 73%
    15:00 +4°C° 0.2 mm 8 mps 758 mmHg 73%
    16:00 +3°C° 0 mm 7 mps 759 mmHg 76%
    17:00 +2°C° 0 mm 6 mps 759 mmHg 78%
    18:00 +2°C° 0 mm 6 mps 759 mmHg 81%
    19:00 +1°C° 0 mm 4 mps 759 mmHg 85%
    20:00 +1°C° 0 mm 3 mps 760 mmHg 89%
    21:00 +1°C° 0 mm 2 mps 760 mmHg 93%
    22:00 +2°C° 0 mm 1 mps 760 mmHg 94%
    23:00 +2°C° 0 mm 1 mps 760 mmHg 94%
    Show more